SL-16 DEB, 22665

Orbit data source: Space-Track

SL-16 DEB, 22665 is space debris in LEO originally from a launch on Fri, 25 Dec 1992 UTC launched from the Tyuratam Missile And Space Complex (TTMTR). Debris objects in space refer to the collection of defunct objects orbiting the Earth. Examples of debris include non-operational satellites, rocket bodies, and fragments generated from explosions, collisions, or faulty payload assembly.

Loading next visibility...
Identifier
22665, 1992-093JA
Orbit
LEO
Country
Flag of CISCIS
Related business
Manufacturer
Unknown
Mission
Spacecraft
Bus & Motor
Unknown
Mass
Unknown
Launch date (UTC)
1992-12-25 (33 years ago)
Launch vehicle
Unknown
Launch site
Tyuratam Missile And Space Complex (TTMTR)
Object type
Payload
Rocket body
Debris
Shape & HBR
Unknown shape, 0.1 m
Radar Cross Section
Small (<0.1 m²)

Expand to show TLE details & history
Last TLE update: 1 day ago

TLE from 1 day ago
0 SL-16 DEB
1 22665U 92093JA  26132.25363080  .00000267  00000-0  18153-3 0  9991
2 22665  71.0785  66.7335 0067373 168.1781 342.2289 14.07598989696774
Epoch: 2026-05-12T06:05Z
TLE epoch observation values (Epoch: 2026-05-12T06:05:13.701Z)
Latitude
28.1236°
Longitude
-85.10484°
Altitude
824.079 km
Speed
7.468 km/s
True Right ascension
15h 44m 55s
True Declination
27° 58' 56"
Sunlit
Object was in full shadow at epoch
Visualization orbit readout
Latitude
Unknown
Longitude
Unknown
Altitude
Unknown
Speed
Unknown
Apparent Right ascension
Unknown
Apparent Declination
Unknown
Sunlit
N/A
Visualization observer readout
Local Sidereal Time
18:39:46
Azimuth
Unknown
Elevation
Unknown
Doppler factor
Unknown
Orbital elements
Apogee altitude
914.327 km
Perigee altitude
816.721 km
Semi-major axis
7,243.661 km
Eccentricity
0.00674
Inclination
71.0785°
RAAN
66.7335°
Arg. of periapsis
168.1781°
True anomaly
341.99136°
Mean anomaly
342.2289°
Eccentric anomaly
342.11032°
Mean motion
3.52051 °/min
Orbital period
102.26 mins
BSTAR
0.00018153
Loading maneuver chart data...
Computing Atmospheric mass density...
Loading historical data...
Loading historical data...
Loading historical data...
Loading historical data...
Loading historical data...
Loading historical data...
Loading historical data...

Documentation

Showing up to 5 results
|